[[{"header":{"parameterUnit":"m.s-1","parameterCategory":1,"la1":30.2991,"la2":30.254,"lo1":-89.0895,"lo2":-89.0444,"dy":0.0017,"dx":0.0017,"nx":28,"ny":28,"refTime":"2023-10-24T03:00:00:Z","depth":0,"parameterNumber":2,"parameterNumberName":"U-component_of_WINDS"},"data":[0,0,0,0,0,0,0,0,0,0,0,0,0,0,0,0,0,0,0,0,0,0,0,0,0,0,0,0,0,0,0,0,0,0,0,0,0,0,0,0,0,0,0,0,0,0,0,0,0,0,0,0,0,0,0,0,0,0,-6.8796,-6.8797,0,-6.8841,-6.8842,-6.8842,-6.8695,-6.869,-6.8686,-6.8682,-6.8723,-6.8728,-6.8733,0,0,0,0,0,0,0,0,0,0,0,0,0,-6.8582,-6.8587,-6.8796,-6.8797,-6.8798,-6.8841,-6.8842,-6.8842,-6.8696,-6.869,-6.8685,-6.868,-6.8721,-6.8727,-6.8734,0,0,0,0,0,0,0,0,0,0,0,0,0,-6.8656,-6.8588,-6.8796,-6.873,-6.8724,-6.8841,-6.8842,-6.8842,-6.8697,-6.869,-6.8683,-6.8677,-6.8719,-6.8727,-6.8735,-6.8916,0,0,-6.8759,-6.8762,0,0,0,0,0,0,0,0,-6.8652,-6.8664,-6.8739,-6.8735,-6.8729,-6.8756,-6.8781,-6.8867,-6.8698,-6.8707,-6.8682,-6.8674,-6.8739,-6.8745,-6.8768,-6.8918,-6.892,-6.8759,-6.8764,-6.8767,-6.877,0,0,0,0,0,0,0,-6.8647,-6.8661,-6.8814,-6.874,-6.8734,-6.8697,-6.87,-6.8796,-6.876,-6.8706,-6.8695,-6.8703,-6.8735,-6.876,-6.8767,-6.892,-6.8759,-6.8766,-6.8771,-6.8774,-6.9223,-6.923,0,0,0,0,0,0,-6.8651,-6.8658,-6.8812,-6.8815,-6.8673,-6.8706,-6.871,-6.8754,-6.8758,-6.8753,-6.8708,-6.8696,-6.875,-6.8758,-6.8768,-6.898,-6.8767,-6.8775,-6.8779,-6.9216,-6.9225,-6.9232,0,0,0,0,0,0,-6.8647,-6.8666,-6.8811,-6.8734,-6.8749,-6.8717,-6.8767,-6.8758,-6.8783,-6.876,-6.8752,-6.8741,-6.8745,-6.8757,-6.8881,-6.898,-6.8778,-6.8785,-6.9207,-6.9218,-6.9228,-6.9407,0,0,0,0,0,0,-6.8641,-6.8665,-6.8734,-6.8736,-6.8754,-6.8923,-6.8774,-6.8764,-6.8798,-6.8782,-6.8789,-6.8784,-6.8741,-6.887,-6.8889,-6.8987,-6.8791,-6.9198,-6.9212,-6.9225,-6.9392,-6.9422,-6.9448,0,0,0,0,0,-6.8634,-6.8781,-6.8738,-6.8758,-6.884,-6.8929,-6.8939,-6.8888,-6.8806,-6.8875,-6.8861,-6.8784,-6.8967,-6.8884,-6.8904,-6.9006,-6.9192,-6.9208,-6.9224,-6.9379,-6.9416,-6.9448,0,0,0,0,0,0,-6.8789,-6.878,-6.8732,-6.8885,-6.891,-6.8904,-6.8988,-6.8929,-6.8976,-6.8958,-6.8892,-6.8895,-6.903,-6.9031,-6.8938,-6.9182,-6.9065,-6.9086,-6.9176,-6.9211,-6.9239,-6.9234,-6.8798,0,0,0,0,0,-6.8842,-6.8916,-6.8904,-6.904,-6.9055,-6.9021,-6.9058,-6.9017,-6.9039,-6.9048,-6.9042,-6.9065,-6.9128,-6.917,-6.9227,-6.9393,-6.9392,-6.9473,-6.9501,-6.9525,-6.9542,-6.963,-6.9665,-6.9286,-6.9286,-6.9285,0,0,-6.8949,-6.8954,-6.9004,-6.9072,-6.9085,-6.9163,-6.903,-6.9118,-6.9175,-6.906,-6.9176,-6.9175,-6.9196,-6.9342,-6.9406,-6.9346,-6.9648,-6.9546,-6.9564,-6.9569,-6.965,-6.9686,-6.9718,-6.9297,-6.9295,-6.9293,0,0,-6.9184,-6.9197,-6.9311,-6.9329,-6.9353,-6.933,-6.9359,-6.9364,-6.9358,-6.9475,-6.9391,-6.9458,-6.9568,-6.9586,-6.961,-6.9859,-6.9789,-6.988,-7.0025,-7.0112,-7.0142,-7.0168,-7.0255,-7.0287,-6.9898,-6.9899,-6.9899,0,-6.9314,-6.943,-6.9377,-6.9472,-6.9503,-6.9408,-6.9522,-6.9542,-6.9583,-6.9607,-6.9541,-6.9678,-6.9685,-6.9834,-6.9895,-6.9919,-6.9947,-6.9876,-7.0142,-7.0168,-7.0191,-7.0273,-7.0306,-6.9909,-6.9908,-6.9907,-6.9906,0,-6.9588,-6.967,-6.9759,-6.9803,-6.9846,-6.995,-6.9913,-6.9962,-6.992,-6.9904,-7.0024,-7.0031,-7.0088,-7.0121,-7.0079,-7.0265,-7.0227,-7.0154,-7.0033,-7.0239,-7.0315,-7.0346,-6.9924,-6.9921,-6.9917,-6.9915,0,0,-6.9915,-6.9934,-6.9967,-6.9986,-7.0008,-7.007,-7.0171,-7.0228,-7.0271,-7.0305,-7.0386,-7.0484,-7.0417,-7.0444,-7.0404,-7.0481,-7.0676,-7.0397,-7.0397,-7.0446,-7.088,-7.0932,-7.0969,-7.0633,-7.0639,-7.0643,-7.0877,0,-7.0145,-7.0319,-7.0276,-7.0448,-7.0522,-7.0435,-7.0523,-7.0546,-7.0535,-7.0597,-7.0584,-7.0654,-7.056,-7.0577,-7.0649,-7.0637,-7.0761,-7.062,-7.0705,-7.0709,-7.0699,-7.1009,-7.1065,-7.1284,-7.0906,-7.0911,-7.0915,0,-7.0434,-7.0481,-7.0661,-7.0673,-7.0703,-7.0782,-7.0832,-7.0893,-7.0918,-7.0905,-7.0939,-7.0885,-7.0984,-7.0868,-7.1004,-7.0909,-7.0942,-7.0942,-7.095,-7.0952,-7.0821,-7.1017,-7.1353,-7.1385,-7.0961,-7.0958,-7.0954,0,-7.0653,-7.0761,-7.0882,-7.0902,-7.092,-7.0978,-7.0988,-7.1007,-7.1045,-7.1089,-7.1113,-7.1169,-7.1198,-7.1242,-7.1204,-7.1124,-7.1346,-7.1226,-7.1335,-7.1337,-7.1382,-7.1378,-7.1725,-7.1411,-7.141,-7.141,-7.1409,0,-7.0911,-7.1023,-7.0981,-7.1055,-7.1179,-7.1131,-7.1255,-7.1254,-7.1273,-7.1345,-7.1274,-7.1343,-7.1292,-7.1357,-7.1329,-7.1444,-7.1459,-7.145,-7.144,-7.1454,-7.1455,-7.1471,-7.1453,-7.1418,-7.1416,-7.1415,-7.1413,0,-7.1172,-7.1149,-7.1275,-7.1284,-7.1289,-7.138,-7.1386,-7.1455,-7.1441,-7.1534,-7.1553,-7.1531,-7.1604,-7.1573,-7.1649,-7.163,-7.1778,-7.175,-7.177,-7.1761,-7.1871,-7.186,-7.2237,-7.2283,-7.1943,-7.1946,-7.1949,0,-7.1336,-7.1421,-7.144,-7.1485,-7.15,-7.1573,-7.1612,-7.157,-7.1613,-7.1651,-7.1715,-7.1783,-7.1834,-7.1955,-7.1945,-7.2004,-7.1974,-7.2103,-7.1982,-7.1994,-7.1973,-7.1966,-7.1974,-7.2125,-7.2129,-7.2132,-7.2135,0,-7.1629,-7.1615,-7.1675,-7.1733,-7.1783,-7.1826,-7.1862,-7.1903,-7.1862,-7.1915,-7.199,-7.2031,-7.2111,-7.2178,-7.2231,-7.224,-7.2181,-7.2174,-7.2202,-7.2214,-7.2221,-7.2216,-7.1832,-7.2164,-7.2161,-7.2159,-7.2157,-7.2156,-7.1844,-7.1916,-7.1942,-7.2012,-7.2036,-7.2073,-7.2138,-7.2135,-7.2198,-7.226,-7.2232,-7.2319,-7.2344,-7.2409,-7.2427,-7.2494,-7.2443,-7.2484,-7.2494,-7.2503,-7.2517,-7.2215,-7.2504,-7.2503,-7.2502,-7.2501,-7.2501,0,-7.2131,-7.2144,-7.221,-7.2265,-7.2321,-7.2265,-7.2304,-7.2353,-7.2431,-7.2461,-7.2514,-7.2601,-7.2668,-7.2666,-7.2727,-7.2781,-7.2756,-7.2798,-7.2791,-7.2794,-7.256,-7.2528,-7.2818,-7.2818,-7.2818,-7.2818,-7.2818,-7.2818,-7.2286,-7.2404,-7.2394,-7.2524,-7.2536,-7.2622,-7.2649,-7.2683,-7.2706,-7.2807,-7.2863,-7.2863,-7.288,-7.2942,-7.3001,-7.2999,-7.3023,-7.3075,-7.3063,-7.2842,-7.2811,-7.2781,-7.275,-7.3082,-7.3082,-7.3291,-7.3293,-7.3294]},{"header":{"parameterUnit":"m.s-1","parameterCategory":1,"la1":30.2991,"la2":30.254,"lo1":-89.0895,"lo2":-89.0444,"dy":0.0017,"dx":0.0017,"nx":28,"ny":28,"refTime":"2023-10-24T03:00:00:Z","depth":0,"parameterNumber":3,"parameterNumberName":"V-component_of_WINDS"},"data":[0,0,0,0,0,0,0,0,0,0,0,0,0,0,0,0,0,0,0,0,0,0,0,0,0,0,0,0,0,0,0,0,0,0,0,0,0,0,0,0,0,0,0,0,0,0,0,0,0,0,0,0,0,0,0,0,0,0,1.6317,1.6319,0,1.6444,1.6446,1.6447,1.6518,1.6519,1.6519,1.6519,1.6644,1.6647,1.665,0,0,0,0,0,0,0,0,0,0,0,0,0,1.6132,1.6135,1.6317,1.6319,1.632,1.6444,1.6446,1.6448,1.6518,1.6519,1.6519,1.6519,1.6643,1.6646,1.665,0,0,0,0,0,0,0,0,0,0,0,0,0,1.6231,1.6136,1.6317,1.6371,1.6377,1.6444,1.6446,1.6448,1.6518,1.6519,1.6519,1.6519,1.6642,1.6646,1.6651,1.6672,0,0,1.6665,1.6667,0,0,0,0,0,0,0,0,1.6225,1.6238,1.6361,1.6367,1.6374,1.6466,1.6427,1.6523,1.6518,1.6464,1.6519,1.652,1.6584,1.6593,1.6616,1.6678,1.6683,1.6665,1.6668,1.667,1.6671,0,0,0,0,0,0,0,1.6219,1.6233,1.6367,1.6363,1.6371,1.6387,1.6402,1.6445,1.652,1.6469,1.6475,1.6489,1.6588,1.6612,1.662,1.6685,1.6665,1.6669,1.6672,1.6674,1.6774,1.6774,0,0,0,0,0,0,1.6204,1.6227,1.6363,1.6371,1.6299,1.639,1.6407,1.6436,1.652,1.6534,1.6489,1.6492,1.6604,1.6614,1.6624,1.6657,1.667,1.6674,1.6677,1.6774,1.6774,1.6774,0,0,0,0,0,0,1.6199,1.6215,1.6358,1.6301,1.632,1.6393,1.6426,1.6438,1.6463,1.6535,1.6548,1.65,1.6604,1.6618,1.6661,1.6662,1.6676,1.6681,1.6774,1.6774,1.6774,1.6721,0,0,0,0,0,0,1.6194,1.6213,1.6223,1.63,1.6323,1.6393,1.6426,1.6441,1.6471,1.6477,1.6549,1.6561,1.6606,1.6654,1.6665,1.6669,1.6684,1.6774,1.6774,1.6774,1.6723,1.6719,1.6716,0,0,0,0,0,1.6187,1.6201,1.6223,1.6239,1.6337,1.6393,1.6406,1.6458,1.6471,1.6481,1.6528,1.6559,1.666,1.6657,1.6671,1.6676,1.6774,1.6774,1.6774,1.6725,1.672,1.6716,0,0,0,0,0,0,1.6119,1.6212,1.6237,1.6277,1.6327,1.6405,1.6419,1.6451,1.6497,1.65,1.6562,1.6577,1.6615,1.665,1.6645,1.6703,1.6721,1.6723,1.6679,1.6675,1.6671,1.6662,1.6688,0,0,0,0,0,1.6109,1.6149,1.6227,1.6255,1.6279,1.6345,1.6371,1.6408,1.6461,1.6482,1.6532,1.6581,1.6625,1.6652,1.6695,1.6729,1.6746,1.6739,1.6735,1.6732,1.6733,1.6756,1.6754,1.6773,1.6773,1.6773,0,0,1.6088,1.6144,1.6165,1.6243,1.6286,1.6325,1.6362,1.6401,1.643,1.6487,1.6532,1.657,1.663,1.6669,1.6688,1.6699,1.6733,1.6732,1.6729,1.6732,1.6755,1.6753,1.6752,1.6772,1.6772,1.6773,0,0,1.607,1.6116,1.6146,1.6189,1.6254,1.6299,1.6305,1.638,1.6408,1.6455,1.6499,1.6534,1.6607,1.6648,1.6678,1.668,1.671,1.6692,1.6673,1.6694,1.6692,1.6691,1.6693,1.6692,1.6693,1.6693,1.6693,0,1.6035,1.6097,1.6156,1.6194,1.6227,1.6283,1.6313,1.6352,1.6427,1.6449,1.646,1.6555,1.6599,1.6649,1.665,1.6672,1.6682,1.6684,1.6688,1.6688,1.6688,1.669,1.669,1.669,1.6691,1.6691,1.6691,0,1.6052,1.6094,1.611,1.6185,1.622,1.6253,1.6316,1.6345,1.6379,1.6421,1.6468,1.6523,1.658,1.6595,1.6627,1.665,1.6655,1.6677,1.6696,1.6682,1.6685,1.6686,1.6687,1.6687,1.6688,1.6689,0,0,1.5993,1.6102,1.6107,1.6143,1.6221,1.6254,1.629,1.6349,1.6372,1.6423,1.6455,1.6517,1.6538,1.6573,1.661,1.6629,1.6628,1.6648,1.6651,1.6643,1.6659,1.6643,1.6642,1.6649,1.6649,1.665,1.6654,0,1.5987,1.6057,1.6112,1.6161,1.6202,1.6257,1.6289,1.634,1.6381,1.6421,1.6466,1.651,1.6533,1.6555,1.6576,1.6623,1.6632,1.6624,1.6679,1.668,1.6663,1.6644,1.6627,1.6628,1.6655,1.6656,1.6656,0,1.5989,1.6041,1.6095,1.6171,1.619,1.6218,1.6277,1.6314,1.6373,1.6402,1.6443,1.6483,1.6523,1.6539,1.6596,1.659,1.6616,1.6643,1.6644,1.6651,1.6667,1.6651,1.6629,1.663,1.6658,1.6658,1.6658,0,1.5942,1.6025,1.6069,1.6097,1.6187,1.6206,1.6244,1.6304,1.6336,1.6387,1.6409,1.6462,1.6492,1.6533,1.6586,1.6593,1.6638,1.6658,1.6663,1.6662,1.667,1.6669,1.6653,1.6686,1.6686,1.6686,1.6686,0,1.593,1.596,1.6049,1.6076,1.6113,1.6175,1.621,1.6252,1.6305,1.6341,1.6391,1.6423,1.6492,1.6532,1.6574,1.6616,1.6629,1.6653,1.6664,1.6649,1.6646,1.6667,1.6668,1.6686,1.6686,1.6686,1.6686,0,1.5883,1.5944,1.5995,1.6077,1.6099,1.6122,1.6192,1.622,1.6265,1.631,1.6324,1.6394,1.6445,1.6503,1.6571,1.6599,1.6638,1.6654,1.6619,1.6625,1.6628,1.6627,1.6625,1.6628,1.6657,1.6657,1.6657,0,1.5871,1.5897,1.5983,1.6012,1.6049,1.6094,1.6128,1.6191,1.6225,1.6296,1.6315,1.637,1.6418,1.6495,1.6552,1.6605,1.6623,1.6618,1.6631,1.6616,1.6624,1.6622,1.6625,1.6614,1.6614,1.6613,1.6613,0,1.5844,1.5874,1.5922,1.5982,1.6022,1.6071,1.6122,1.6143,1.6216,1.6251,1.6305,1.6342,1.6414,1.6468,1.6528,1.6567,1.6602,1.6609,1.6613,1.6598,1.6577,1.659,1.661,1.6608,1.6609,1.6609,1.6609,1.6609,1.5815,1.5842,1.5907,1.596,1.6006,1.6054,1.6085,1.6136,1.6182,1.6247,1.6281,1.6335,1.6395,1.6481,1.6518,1.656,1.6572,1.6578,1.6579,1.658,1.6576,1.6571,1.6571,1.6572,1.6572,1.6572,1.6572,0,1.5792,1.5838,1.5886,1.5958,1.6,1.6032,1.6091,1.6123,1.6171,1.6225,1.6272,1.6334,1.6387,1.6449,1.6506,1.6528,1.6546,1.6541,1.654,1.6549,1.6562,1.6553,1.6526,1.6526,1.6526,1.6526,1.6526,1.6526,1.5785,1.5832,1.587,1.594,1.5986,1.604,1.6071,1.6116,1.616,1.6228,1.6274,1.6315,1.6373,1.6435,1.6485,1.6502,1.6521,1.6511,1.6533,1.6544,1.6548,1.6551,1.6543,1.6515,1.6515,1.6517,1.6517,1.6517]}]]